GLO1855 SBNF-SBGL

Flight info

Callsign GLO1855
Flight time N/A
Altitude 39000
Route KUBLO UM540 ANISE DCT DORLU UZ42 VUREP
Aircraft B738/M-SDE2E3FGHIRWXY/LB1

Departure

Time 2026-05-03 22:23
Airport Ministro Victor Konder International Airport (SBNF)

Arrival

Time N/A
Airport Rio Galeão – Tom Jobim International Airport (SBGL)
Time Latitude Longitude Altitude Speed Heading
2026-05-03 21:43 -26.88019 -48.64938 29 ft 0 kts 146°
2026-05-03 22:16 -26.88007 -48.64948 28 ft 2 kts 146°
2026-05-03 22:16 -26.87999 -48.64953 29 ft 2 kts 140°
2026-05-03 22:16 -26.87993 -48.64968 29 ft 2 kts 92°
2026-05-03 22:16 -26.87995 -48.64982 29 ft 0 kts 60°
2026-05-03 22:17 -26.87999 -48.64988 29 ft 1 kts 54°
2026-05-03 22:17 -26.88000 -48.64990 29 ft 0 kts 55°
2026-05-03 22:19 -26.87983 -48.64964 29 ft 8 kts 55°
2026-05-03 22:19 -26.87946 -48.64900 28 ft 9 kts 57°
2026-05-03 22:20 -26.87909 -48.64849 28 ft 7 kts 18°
2026-05-03 22:20 -26.87866 -48.64864 29 ft 6 kts 328°
2026-05-03 22:20 -26.87831 -48.64880 28 ft 6 kts
2026-05-03 22:20 -26.87758 -48.64789 29 ft 21 kts 56°
2026-05-03 22:21 -26.87675 -48.64656 29 ft 20 kts 56°
2026-05-03 22:21 -26.87600 -48.64529 28 ft 18 kts 56°
2026-05-03 22:21 -26.87528 -48.64431 28 ft 13 kts 57°
2026-05-03 22:21 -26.87547 -48.64412 28 ft 5 kts 274°
2026-05-03 22:22 -26.87554 -48.64450 28 ft 4 kts 238°
2026-05-03 22:22 -26.87557 -48.64453 28 ft 0 kts 238°
2026-05-03 22:22 -26.87651 -48.64614 29 ft 65 kts 236°
2026-05-03 22:22 -26.88071 -48.65299 29 ft 142 kts 237°
2026-05-03 22:23 -26.88695 -48.66337 383 ft 172 kts 237°
2026-05-03 22:23 -26.89318 -48.67375 1235 ft 167 kts 236°
2026-05-03 22:23 -26.89974 -48.68442 1851 ft 170 kts 236°
2026-05-03 22:23 -26.90671 -48.69593 2048 ft 187 kts 236°
2026-05-03 22:24 -26.91448 -48.70880 2286 ft 205 kts 236°
2026-05-03 22:24 -26.92282 -48.72260 2563 ft 223 kts 234°
2026-05-03 22:24 -26.93471 -48.73420 2869 ft 236 kts 201°
2026-05-03 22:24 -26.95125 -48.73676 3219 ft 246 kts 174°
2026-05-03 22:25 -26.96842 -48.73340 3748 ft 249 kts 157°
2026-05-03 22:25 -26.98254 -48.72213 4190 ft 255 kts 124°
2026-05-03 22:25 -26.98933 -48.70354 4535 ft 264 kts 98°
2026-05-03 22:25 -26.99234 -48.68282 5091 ft 271 kts 98°
2026-05-03 22:26 -26.99556 -48.66209 5656 ft 276 kts 98°
2026-05-03 22:26 -26.99823 -48.64041 6226 ft 280 kts 90°
2026-05-03 22:26 -26.99546 -48.61908 6802 ft 281 kts 66°
2026-05-03 22:26 -26.98519 -48.60047 7393 ft 281 kts 50°
2026-05-03 22:27 -26.97278 -48.58301 7965 ft 287 kts 50°
2026-05-03 22:27 -26.96182 -48.56727 8492 ft 292 kts 51°
2026-05-03 22:27 -26.94933 -48.54926 9074 ft 297 kts 51°
2026-05-03 22:27 -26.93648 -48.53080 9672 ft 302 kts 51°
2026-05-03 22:28 -26.92348 -48.51202 10290 ft 306 kts 51°
2026-05-03 22:28 -26.91054 -48.49245 10692 ft 320 kts 52°
2026-05-03 22:28 -26.89730 -48.47213 11023 ft 335 kts 52°
2026-05-03 22:28 -26.88317 -48.45049 11371 ft 349 kts 52°
2026-05-03 22:29 -26.86869 -48.42837 11953 ft 355 kts 52°
2026-05-03 22:29 -26.85367 -48.40545 12606 ft 359 kts 52°
2026-05-03 22:29 -26.83857 -48.38243 13255 ft 362 kts 51°
2026-05-03 22:29 -26.82340 -48.35934 13918 ft 365 kts 51°
2026-05-03 22:30 -26.80791 -48.33579 14531 ft 370 kts 51°
2026-05-03 22:30 -26.79229 -48.31204 15182 ft 374 kts 51°
2026-05-03 22:30 -26.77705 -48.28888 15754 ft 379 kts 51°
2026-05-03 22:30 -26.76115 -48.26474 16387 ft 383 kts 51°
2026-05-03 22:31 -26.74487 -48.24005 16987 ft 387 kts 51°
2026-05-03 22:31 -26.72807 -48.21534 17579 ft 390 kts 48°
2026-05-03 22:31 -26.70974 -48.19251 18131 ft 392 kts 40°
2026-05-03 22:31 -26.68794 -48.17252 18671 ft 394 kts 32°
2026-05-03 22:32 -26.66459 -48.15499 19224 ft 396 kts 28°
2026-05-03 22:32 -26.64096 -48.13829 19757 ft 400 kts 28°
2026-05-03 22:32 -26.61656 -48.12096 20243 ft 406 kts 29°
2026-05-03 22:32 -26.59244 -48.10274 20760 ft 411 kts 31°
2026-05-03 22:33 -26.56929 -48.08327 21261 ft 417 kts 34°
2026-05-03 22:33 -26.54656 -48.06119 21762 ft 423 kts 40°
2026-05-03 22:33 -26.52606 -48.03746 22245 ft 429 kts 45°
2026-05-03 22:33 -26.50850 -48.01266 22679 ft 435 kts 52°
2026-05-03 22:34 -26.49295 -47.98499 23054 ft 442 kts 59°
2026-05-03 22:34 -26.47982 -47.95335 23545 ft 447 kts 68°
2026-05-03 22:34 -26.47063 -47.91979 23920 ft 453 kts 77°
2026-05-03 22:34 -26.46590 -47.88378 24329 ft 457 kts 87°
2026-05-03 22:35 -26.46640 -47.84777 24759 ft 459 kts 97°
2026-05-03 22:35 -26.47236 -47.81192 25112 ft 461 kts 109°
2026-05-03 22:35 -26.48402 -47.77774 25521 ft 459 kts 121°
2026-05-03 22:35 -26.50116 -47.74656 25882 ft 456 kts 133°